GW4028 Weather Reports


Display with metric or nautical units.
time (UTC)temp
F
wind
direction
speed
MPH
gust
MPH
rain 1hr
in
rain 24hr
in
rain mn
in
humidity
%
barometer
mb
20260508182152 54 355 4.0 8.0 0.00 0.00 0.00 38 1023.5
20260508181647 55 304 4.0 8.0 0.00 0.00 0.00 38 1023.3
20260508181145 54 69 0.0 7.0 0.00 0.00 0.00 38 1023.4
20260508180642 53 51 3.0 4.0 0.00 0.00 0.00 39 1023.4
20260508180139 54 92 2.0 8.0 0.00 0.00 0.00 39 1023.4
20260508175635 54 51 4.0 10.0 0.00 0.00 0.00 41 1023.5
20260508175132 54 64 2.0 6.0 0.00 0.00 0.00 38 1023.7
20260508174629 54 47 3.0 3.0 0.00 0.00 0.00 38 1023.4
20260508174126 54 329 5.0 7.0 0.00 0.00 0.00 39 1023.5
20260508173623 54 57 0.0 7.0 0.00 0.00 0.00 38 1023.5
20260508173119 54 80 1.0 3.0 0.00 0.00 0.00 39 1023.4
20260508172616 53 128 1.0 2.0 0.00 0.00 0.00 38 1023.4
20260508172113 53 52 4.0 6.0 0.00 0.00 0.00 39 1023.3
20260508171609 53 65 1.0 4.0 0.00 0.00 0.00 38 1023.5
20260508171106 53 10 6.0 8.0 0.00 0.00 0.00 38 1023.5
20260508170603 53 45 3.0 6.0 0.00 0.00 0.00 37 1023.4
20260508170100 53 101 1.0 4.0 0.00 0.00 0.00 38 1023.4
20260508165557 53 216 3.0 4.0 0.00 0.00 0.00 36 1023.4
20260508165054 53 125 2.0 3.0 0.00 0.00 0.00 37 1023.5
20260508164551 53 80 0.0 6.0 0.00 0.00 0.00 37 1023.4
20260508164048 52 111 2.0 6.0 0.00 0.00 0.00 38 1023.3
20260508163545 52 74 0.0 3.0 0.00 0.00 0.00 39 1023.4
20260508163042 51 85 4.0 8.0 0.00 0.00 0.00 38 1023.2
20260508162538 51 39 2.0 2.0 0.00 0.00 0.00 36 1023.4
20260508162036 52 17 4.0 7.0 0.00 0.00 0.00 38 1023.4
20260508161532 52 80 1.0 3.0 0.00 0.00 0.00 39 1023.2
20260508161030 51 108 1.0 2.0 0.00 0.00 0.00 39 1023.4
20260508160528 51 80 2.0 6.0 0.00 0.00 0.00 38 1023.3
20260508160025 51 76 4.0 6.0 0.00 0.00 0.00 39 1023.3
20260508155522 51 57 1.0 6.0 0.00 0.00 0.00 39 1023.3
20260508155019 51 82 2.0 3.0 0.00 0.00 0.00 40 1023.3
20260508154516 50 125 1.0 3.0 0.00 0.00 0.00 42 1023.2
20260508154013 50 82 1.0 4.0 0.00 0.00 0.00 42 1023.2
20260508153509 50 76 1.0 4.0 0.00 0.00 0.00 41 1023.2
20260508153006 50 42 2.0 3.0 0.00 0.00 0.00 40 1023.0
20260508152503 50 331 3.0 3.0 0.00 0.00 0.00 41 1023.3
20260508151959 49 3 1.0 8.0 0.00 0.00 0.00 38 1023.0
20260508151455 49 13 2.0 3.0 0.00 0.00 0.00 40 1023.2
20260508150952 49 137 1.0 2.0 0.00 0.00 0.00 41 1023.2
20260508150449 49 56 2.0 3.0 0.00 0.00 0.00 40 1022.9
20260508145944 49 44 1.0 1.0 0.00 0.00 0.00 40 1022.9
20260508145441 48 81 0.0 2.0 0.00 0.00 0.00 42 1023.0
20260508144938 48 67 1.0 4.0 0.00 0.00 0.00 40 1023.0
20260508144436 48 78 2.0 3.0 0.00 0.00 0.00 41 1022.9
20260508143933 47 66 2.0 6.0 0.00 0.00 0.00 40 1023.0
20260508143431 47 84 0.0 1.0 0.00 0.00 0.00 43 1023.0
20260508142927 47 74 2.0 3.0 0.00 0.00 0.00 41 1022.9
20260508142425 47 92 0.0 1.0 0.00 0.00 0.00 41 1023.0
20260508141920 47 76 1.0 4.0 0.00 0.00 0.00 42 1023.0
20260508141417 47 56 1.0 2.0 0.00 0.00 0.00 42 1023.0
20260508140915 46 53 1.0 1.0 0.00 0.00 0.00 43 1022.8
20260508140412 46 116 2.0 2.0 0.00 0.00 0.00 44 1022.9
20260508135907 45 79 0.0 0.0 0.00 0.00 0.00 47 1022.9
20260508135404 45 79 0.0 0.0 0.00 0.00 0.00 49 1022.8
20260508134900 44 91 0.0 0.0 0.00 0.00 0.00 48 1022.7
20260508134357 44 87 0.0 0.0 0.00 0.00 0.00 48 1022.7
20260508133853 42 98 0.0 0.0 0.00 0.00 0.00 51 1022.7
20260508133351 42 86 0.0 0.0 0.00 0.00 0.00 53 1022.8
20260508132848 42 82 0.0 0.0 0.00 0.00 0.00 55 1022.7
20260508132346 41 83 0.0 0.0 0.00 0.00 0.00 53 1022.8
20260508131843 41 75 0.0 0.0 0.00 0.00 0.00 54 1022.4
20260508131338 41 66 1.0 1.0 0.00 0.00 0.00 55 1022.4
20260508130835 42 79 0.0 1.0 0.00 0.00 0.00 52 1022.4
20260508130332 42 78 0.0 0.0 0.00 0.00 0.00 52 1022.3
20260508125828 42 69 0.0 1.0 0.00 0.00 0.00 51 1022.4
20260508125325 43 74 0.0 1.0 0.00 0.00 0.00 48 1022.4
20260508124822 41 83 0.0 1.0 0.00 0.00 0.00 50 1022.3
20260508124319 39 21 2.0 3.0 0.00 0.00 0.00 52 1022.3
20260508123818 39 71 0.0 2.0 0.00 0.00 0.00 57 1022.1
20260508123316 38 66 0.0 2.0 0.00 0.00 0.00 57 1022.1
20260508122812 39 71 0.0 1.0 0.00 0.00 0.00 57 1022.0
20260508122308 39 71 1.0 1.0 0.00 0.00 0.00 57 1021.9
20260508121806 39 78 0.0 1.0 0.00 0.00 0.00 54 1022.0
20260508121304 39 81 1.0 2.0 0.00 0.00 0.00 55 1022.0
20260508120801 40 72 0.0 1.0 0.00 0.00 0.00 55 1021.9
20260508120259 41 77 0.0 0.0 0.00 0.00 0.00 52 1022.0
20260508115756 41 69 1.0 2.0 0.00 0.00 0.00 50 1021.9
20260508115254 40 74 0.0 1.0 0.00 0.00 0.00 53 1021.8
20260508114750 40 76 0.0 1.0 0.00 0.00 0.00 53 1021.9
20260508114247 40 78 0.0 0.0 0.00 0.00 0.00 52 1021.9
20260508113743 40 66 1.0 2.0 0.00 0.00 0.00 53 1021.8
20260508113242 39 76 0.0 1.0 0.00 0.00 0.00 54 1021.8
20260508112738 40 76 0.0 2.0 0.00 0.00 0.00 55 1022.0
20260508112235 39 65 1.0 2.0 0.00 0.00 0.00 55 1021.9
20260508111731 39 69 1.0 1.0 0.00 0.00 0.00 57 1021.6
20260508111229 39 70 2.0 2.0 0.00 0.00 0.00 57 1022.0
20260508110726 39 74 0.0 2.0 0.00 0.00 0.00 57 1022.0
20260508110224 40 66 1.0 1.0 0.00 0.00 0.00 57 1021.9
20260508105723 40 72 0.0 1.0 0.00 0.00 0.00 54 1022.1
20260508105220 40 76 0.0 1.0 0.00 0.00 0.00 56 1022.0
20260508104713 40 74 0.0 0.0 0.00 0.00 0.00 56 1021.9
20260508104209 40 74 0.0 0.0 0.00 0.00 0.00 56 1021.6
20260508103707 40 73 0.0 0.0 0.00 0.00 0.00 57 1021.8
20260508103204 40 73 0.0 1.0 0.00 0.00 0.00 57 1021.6
20260508102701 40 68 1.0 2.0 0.00 0.00 0.00 58 1021.8
20260508102159 40 77 0.0 1.0 0.00 0.00 0.00 58 1021.9
20260508101655 40 73 0.0 1.0 0.00 0.00 0.00 60 1021.6
20260508101153 40 75 0.0 1.0 0.00 0.00 0.00 59 1021.8
20260508100651 41 64 0.0 0.0 0.00 0.00 0.00 57 1021.8
20260508100149 41 82 1.0 1.0 0.00 0.00 0.00 58 1021.6
20260508095645 41 70 0.0 0.0 0.00 0.00 0.00 59 1021.9
20260508095142 41 68 0.0 0.0 0.00 0.00 0.00 59 1021.8
20260508094639 41 76 0.0 0.0 0.00 0.00 0.00 60 1021.5
20260508094135 41 72 0.0 0.0 0.00 0.00 0.00 60 1021.5
20260508093633 41 74 0.0 0.0 0.00 0.00 0.00 61 1021.4
20260508093130 41 74 0.0 0.0 0.00 0.00 0.00 61 1021.4
20260508092627 41 75 0.0 0.0 0.00 0.00 0.00 60 1021.6
20260508092126 41 69 0.0 0.0 0.00 0.00 0.00 59 1021.5
20260508091622 41 74 0.0 2.0 0.00 0.00 0.00 61 1021.4
20260508091120 41 68 1.0 1.0 0.00 0.00 0.00 61 1021.9
20260508090618 41 76 0.0 1.0 0.00 0.00 0.00 61 1021.6
20260508090115 41 75 0.0 1.0 0.00 0.00 0.00 60 1021.6
20260508085611 41 76 0.0 0.0 0.00 0.00 0.00 62 1021.5
20260508085108 41 72 0.0 1.0 0.00 0.00 0.00 61 1021.6
20260508084605 42 74 0.0 1.0 0.00 0.00 0.00 60 1021.8
20260508084102 41 66 0.0 0.0 0.00 0.00 0.00 60 1021.8
20260508083559 42 72 0.0 0.0 0.00 0.00 0.00 60 1021.9
20260508083056 42 67 1.0 1.0 0.00 0.00 0.00 59 1022.0
20260508082551 41 70 0.0 1.0 0.00 0.00 0.00 60 1021.8
20260508082048 41 76 0.0 0.0 0.00 0.00 0.00 59 1022.0
20260508081546 41 67 1.0 1.0 0.00 0.00 0.00 60 1022.0
20260508081042 41 81 0.0 1.0 0.00 0.00 0.00 60 1021.9
20260508080540 41 74 0.0 2.0 0.00 0.00 0.00 59 1022.3
20260508080037 41 62 0.0 0.0 0.00 0.00 0.00 59 1021.8
20260508075533 41 67 1.0 1.0 0.00 0.00 0.00 59 1021.9
20260508075031 41 80 0.0 0.0 0.00 0.00 0.00 58 1022.0
20260508074529 42 74 0.0 1.0 0.00 0.00 0.00 58 1021.9
20260508074025 42 77 0.0 0.0 0.00 0.00 0.00 56 1021.9
20260508073523 42 75 0.0 0.0 0.00 0.00 0.00 56 1022.0
20260508073020 42 61 1.0 2.0 0.00 0.00 0.00 56 1021.9
20260508072516 42 76 0.0 0.0 0.00 0.00 0.00 57 1022.0
20260508072013 42 74 0.0 0.0 0.00 0.00 0.00 57 1022.0
20260508071511 42 77 0.0 1.0 0.00 0.00 0.00 56 1021.8
20260508071008 43 75 0.0 1.0 0.00 0.00 0.00 55 1021.9
20260508070506 43 76 0.0 1.0 0.00 0.00 0.00 54 1022.0
20260508070004 44 73 1.0 1.0 0.00 0.00 0.00 52 1021.8
20260508065502 44 91 0.0 1.0 0.00 0.00 0.00 49 1022.0
20260508065000 44 71 0.0 1.0 0.00 0.00 0.00 51 1022.0
20260508064457 44 84 0.0 1.0 0.00 0.00 0.00 51 1021.9
20260508063954 45 72 0.0 2.0 0.00 0.00 0.00 51 1022.0
20260508063451 45 73 0.0 0.0 0.00 0.00 0.00 51 1022.0
20260508062949 45 80 0.0 2.0 0.00 0.00 0.00 49 1021.8
20260508062447 44 67 2.0 2.0 0.00 0.00 0.00 51 1022.0
20260508061943 44 68 0.0 2.0 0.00 0.00 0.00 53 1021.8
20260508061442 43 76 0.0 0.0 0.00 0.00 0.00 53 1021.9
20260508060938 43 78 0.0 0.0 0.00 0.00 0.00 55 1021.9
20260508060435 43 78 0.0 0.0 0.00 0.00 0.00 55 1021.9
20260508055931 43 73 0.0 0.0 0.00 0.00 0.00 56 1021.9
20260508055422 42 73 0.0 0.0 0.00 0.00 0.00 56 1022.0
20260508054918 43 72 0.0 0.0 0.00 0.00 0.00 56 1021.9
20260508054416 43 73 0.0 0.0 0.00 0.00 0.00 56 1022.0
20260508053912 43 72 0.0 1.0 0.00 0.00 0.00 56 1022.0
20260508053409 43 72 0.0 1.0 0.00 0.00 0.00 55 1022.0
20260508052907 42 70 1.0 1.0 0.00 0.00 0.00 56 1022.0
20260508052404 42 70 1.0 2.0 0.00 0.00 0.00 57 1021.9
20260508051900 42 75 0.0 1.0 0.00 0.00 0.00 57 1021.8
20260508051357 42 70 1.0 1.0 0.00 0.00 0.00 57 1021.6
20260508050853 43 71 1.0 1.0 0.00 0.00 0.00 57 1022.0
20260508050350 43 71 0.0 0.0 0.00 0.00 0.00 56 1021.8
20260508045846 43 71 1.0 1.0 0.00 0.00 0.00 55 1021.9
20260508045344 43 74 0.0 1.0 0.00 0.00 0.00 55 1022.0
20260508044841 44 69 1.0 1.0 0.00 0.00 0.00 54 1021.9
20260508044337 44 72 0.0 1.0 0.00 0.00 0.00 54 1022.0
20260508043833 43 73 0.0 0.0 0.00 0.00 0.00 53 1021.9
20260508043331 43 71 0.0 0.0 0.00 0.00 0.00 54 1021.9
20260508042827 43 74 0.0 0.0 0.00 0.00 0.00 56 1022.0
20260508042325 43 73 0.0 1.0 0.00 0.00 0.00 56 1021.9
20260508041822 43 68 0.0 1.0 0.00 0.00 0.00 55 1022.0
20260508041318 43 73 0.0 1.0 0.00 0.00 0.00 54 1022.0
20260508040815 44 64 1.0 1.0 0.00 0.00 0.00 54 1022.1
20260508040312 45 80 0.0 1.0 0.00 0.00 0.00 52 1021.8
20260508035809 45 83 0.0 0.0 0.00 0.00 0.00 50 1021.9
20260508035307 46 83 0.0 0.0 0.00 0.00 0.00 49 1021.8
20260508034803 46 85 0.0 0.0 0.00 0.00 0.00 47 1021.8
20260508034301 47 86 0.0 1.0 0.00 0.00 0.00 47 1021.8
20260508033757 48 86 0.0 0.0 0.00 0.00 0.00 45 1021.6
20260508033256 48 75 1.0 2.0 0.00 0.00 0.00 46 1021.6
20260508032753 48 79 0.0 0.0 0.00 0.00 0.00 44 1021.8
20260508032250 48 88 0.0 1.0 0.00 0.00 0.00 47 1021.5
20260508031746 48 77 0.0 3.0 0.00 0.00 0.00 45 1021.5
20260508031243 48 81 0.0 0.0 0.00 0.00 0.00 46 1021.3
20260508030739 48 91 0.0 2.0 0.00 0.00 0.00 43 1021.5
20260508030237 48 86 0.0 0.0 0.00 0.00 0.00 45 1021.4
20260508025733 48 75 0.0 2.0 0.00 0.00 0.00 45 1021.4
20260508025230 48 63 0.0 1.0 0.00 0.00 0.00 47 1021.5
20260508024726 48 71 1.0 1.0 0.00 0.00 0.00 46 1021.4
20260508024224 49 74 1.0 3.0 0.00 0.00 0.00 45 1021.3
20260508023720 50 74 0.0 2.0 0.00 0.00 0.00 44 1021.5
20260508023218 50 99 1.0 2.0 0.00 0.00 0.00 41 1021.1
20260508022713 51 69 1.0 3.0 0.00 0.00 0.00 41 1021.3
20260508022210 51 75 0.0 3.0 0.00 0.00 0.00 41 1021.0
20260508021707 51 72 2.0 4.0 0.00 0.00 0.00 40 1021.3
20260508021203 51 322 2.0 4.0 0.00 0.00 0.00 40 1021.3
20260508020700 51 73 0.0 4.0 0.00 0.00 0.00 40 1021.4
20260508020157 51 15 2.0 6.0 0.00 0.00 0.00 40 1021.1
20260508015655 52 85 2.0 3.0 0.00 0.00 0.00 39 1021.3
20260508015151 52 174 5.0 6.0 0.00 0.00 0.00 39 1021.0
20260508014647 52 78 0.0 1.0 0.00 0.00 0.00 39 1021.1
20260508014143 52 76 0.0 3.0 0.00 0.00 0.00 39 1021.0
20260508013640 53 8 4.0 4.0 0.00 0.00 0.00 39 1021.1
20260508013136 53 89 0.0 4.0 0.00 0.00 0.00 38 1021.3
20260508012635 53 82 2.0 4.0 0.00 0.00 0.00 40 1020.9
20260508012131 53 94 0.0 4.0 0.00 0.00 0.00 39 1021.3
20260508011629 53 37 5.0 7.0 0.00 0.00 0.00 38 1021.0
20260508011127 54 60 2.0 3.0 0.00 0.00 0.00 38 1020.9
20260508010623 54 75 0.0 6.0 0.00 0.00 0.00 37 1021.1
20260508010122 54 74 5.0 8.0 0.00 0.00 0.00 36 1021.0
20260508005618 55 334 4.0 6.0 0.00 0.00 0.00 36 1020.9
20260508005114 55 56 4.0 6.0 0.00 0.00 0.00 35 1021.1
20260508004610 55 59 1.0 2.0 0.00 0.00 0.00 37 1021.3
20260508004107 55 45 3.0 4.0 0.00 0.00 0.00 36 1021.3
20260508003604 55 50 2.0 3.0 0.00 0.00 0.00 36 1021.1
20260508003102 55 59 4.0 6.0 0.00 0.00 0.00 37 1021.4
20260508002558 55 74 3.0 6.0 0.00 0.00 0.00 36 1021.3
20260508002055 55 215 3.0 7.0 0.00 0.00 0.00 38 1021.5
20260508001550 54 77 1.0 6.0 0.00 0.00 0.00 39 1021.5
20260508001047 55 63 1.0 3.0 0.00 0.00 0.00 38 1021.5
20260508000543 54 86 0.0 4.0 0.00 0.00 0.00 38 1021.5
20260508000041 54 27 1.0 4.0 0.00 0.00 0.00 39 1021.8
20260507235537 53 74 1.0 2.0 0.00 0.00 0.00 39 1021.5
20260507235035 53 44 1.0 6.0 0.00 0.00 0.00 40 1021.8
20260507234531 53 101 1.0 6.0 0.00 0.00 0.00 39 1021.4
20260507234027 53 122 1.0 2.0 0.00 0.00 0.00 40 1021.6
20260507233524 53 76 3.0 4.0 0.00 0.00 0.00 40 1021.6
20260507233023 52 90 1.0 6.0 0.00 0.00 0.00 40 1021.9
20260507232519 52 4 2.0 3.0 0.00 0.00 0.00 41 1022.0
20260507232016 52 78 0.0 2.0 0.00 0.00 0.00 41 1021.9
20260507231512 53 57 3.0 4.0 0.00 0.00 0.00 40 1022.0
20260507231010 53 71 0.0 3.0 0.00 0.00 0.00 41 1021.8
20260507230507 53 61 2.0 6.0 0.00 0.00 0.00 41 1022.0
20260507230003 52 72 0.0 3.0 0.00 0.00 0.00 42 1022.1
20260507225458 52 96 0.0 4.0 0.00 0.00 0.00 40 1022.0
20260507224955 53 49 2.0 13.0 0.00 0.00 0.00 41 1022.1
20260507224450 53 88 2.0 6.0 0.00 0.00 0.00 41 1022.3
20260507223947 53 70 3.0 8.0 0.00 0.00 0.00 40 1022.3
20260507223443 53 110 2.0 9.0 0.00 0.00 0.00 41 1022.4
20260507222940 54 318 2.0 3.0 0.00 0.00 0.00 40 1022.1
20260507222437 53 57 1.0 6.0 0.00 0.00 0.00 39 1022.3
20260507221934 54 296 2.0 6.0 0.00 0.00 0.00 39 1022.3
20260507221431 54 77 2.0 4.0 0.00 0.00 0.00 41 1022.3
20260507220926 55 2 5.0 6.0 0.00 0.00 0.00 37 1022.4
20260507220424 55 65 2.0 9.0 0.00 0.00 0.00 37 1022.3
20260507215921 54 109 2.0 8.0 0.00 0.00 0.00 38 1022.4
20260507215417 54 29 2.0 7.0 0.00 0.00 0.00 38 1022.5
20260507214914 54 70 3.0 6.0 0.00 0.00 0.00 37 1022.4
20260507214412 54 81 0.0 8.0 0.00 0.00 0.00 38 1022.5
20260507213907 55 113 3.0 7.0 0.00 0.00 0.00 37 1022.7
20260507213404 55 65 2.0 4.0 0.00 0.00 0.00 36 1022.5
20260507212901 53 56 5.0 7.0 0.00 0.00 0.00 37 1022.5
20260507212357 55 92 5.0 8.0 0.00 0.00 0.00 37 1022.3
20260507211853 55 102 1.0 3.0 0.00 0.00 0.00 37 1022.4
20260507211350 55 76 1.0 3.0 0.00 0.00 0.00 36 1022.7
20260507210847 55 72 0.0 4.0 0.00 0.00 0.00 38 1022.8
20260507210344 54 68 1.0 4.0 0.00 0.00 0.00 38 1022.7
20260507205841 55 43 2.0 8.0 0.00 0.00 0.00 37 1022.9
20260507205338 54 82 0.0 3.0 0.00 0.00 0.00 40 1022.8
20260507204834 55 355 5.0 8.0 0.00 0.00 0.00 36 1022.8
20260507204331 56 89 2.0 9.0 0.00 0.00 0.00 37 1022.9
20260507203829 55 79 2.0 6.0 0.00 0.00 0.00 38 1023.0
20260507203327 54 83 2.0 3.0 0.00 0.00 0.00 35 1023.0
20260507202822 54 69 2.0 6.0 0.00 0.00 0.00 37 1022.8
20260507202319 56 55 6.0 10.0 0.00 0.00 0.00 37 1022.9
20260507201814 57 126 5.0 7.0 0.00 0.00 0.00 36 1022.9
20260507201310 55 245 6.0 11.0 0.00 0.00 0.00 37 1022.9
20260507200807 54 208 4.0 6.0 0.00 0.00 0.00 39 1022.8
20260507200303 53 104 1.0 3.0 0.00 0.00 0.00 41 1023.2
20260507195759 53 5 6.0 8.0 0.00 0.00 0.00 38 1023.2
20260507195256 53 84 3.0 7.0 0.00 0.00 0.00 39 1023.2
20260507194754 55 65 3.0 6.0 0.00 0.00 0.00 36 1023.2
20260507194249 54 228 5.0 8.0 0.00 0.00 0.00 37 1022.9
20260507193746 53 11 4.0 8.0 0.00 0.00 0.00 35 1023.0
20260507193243 52 57 4.0 4.0 0.00 0.00 0.00 37 1023.2
20260507192739 52 83 2.0 3.0 0.00 0.00 0.00 38 1023.0
20260507192236 52 71 3.0 6.0 0.00 0.00 0.00 37 1023.3
20260507191732 52 67 2.0 4.0 0.00 0.00 0.00 38 1023.4
20260507191229 52 34 3.0 7.0 0.00 0.00 0.00 36 1023.4
20260507190726 52 46 4.0 6.0 0.00 0.00 0.00 38 1023.4
20260507190225 52 78 2.0 7.0 0.00 0.00 0.00 36 1023.0
20260507185723 52 69 4.0 7.0 0.00 0.00 0.00 38 1023.0
20260507185219 54 78 3.0 7.0 0.00 0.00 0.00 37 1023.2
20260507184717 53 119 2.0 3.0 0.00 0.00 0.00 39 1023.3
20260507184215 52 121 1.0 2.0 0.00 0.00 0.00 40 1023.3
20260507183711 55 50 2.0 10.0 0.00 0.00 0.00 34 1023.3
20260507183208 54 194 7.0 9.0 0.00 0.00 0.00 37 1023.3
20260507182705 54 52 1.0 9.0 0.00 0.00 0.00 34 1023.0